Home   Weather   Kingstown   Past weeks

Flag for Saint Vincent and Grenadines Past Weather in Kingstown, Saint Vincent and Grenadines — Yesterday and Last 2 Weeks

Now
82 °F

Passing clouds.


Feels Like: 88 °F
Forecast: N/A
Wind: 9 mph from East

Location: Arnos Vale

Current Time: Dec 4, 2016 at 6:40:04 pm

Latest Report: Dec 4, 2016 at 6:00 pm


Visibility: N/A

Pressure: 29.92 "Hg

Humidity: 74%

Dew Point: 73 °F

Location of KingstownLocation

Past Weather in Kingstown — Graph

°F

Kingstown Temperature Yesterday

Maximum temperature yesterday: 88 °F (at 12:00 pm)
Minimum temperature yesterday: 81 °F (at 12:00 am)
Average temperature yesterday: 83 °F

High & Low Weather Summary for the Past Weeks

 TemperatureHumidityPressure
High88 °F (Nov 22, 11:00 am)100% (Nov 27, 11:00 am)30.21 "Hg (Nov 27, 11:00 am)
Low73 °F (Nov 29, 8:00 am)59% (Dec 4, 10:00 am)29.80 "Hg (Nov 19, 5:00 pm)
Average82 °F78%29.90 "Hg
* Reported Nov 19 5:00 pm — Dec 4 5:00 pm, Kingstown, Weather by CustomWeather, © 2016

Note: Actual official high and low records may vary slightly from our data, if they occured in-between our weather recording intervals... More about our weather records

Advertising

Kingstown Weather History for the Previous 24 Hours

Scroll right to see more
 ConditionsComfort  
Time TempWeatherWind HumidityBarometerVisibility
5:00 pm
Sun, Dec 4
84 °FScattered clouds.6 mph74%29.92 "HgN/A
4:00 pm86 °FPassing clouds.9 mph66%29.92 "HgN/A
3:00 pm88 °FPassing clouds.9 mph62%29.92 "HgN/A
2:00 pm88 °FPassing clouds.9 mph59%29.92 "HgN/A
1:00 pm88 °FScattered clouds.9 mph59%29.95 "HgN/A
12:00 pm88 °FScattered clouds.13 mph59%29.98 "HgN/A
11:00 am88 °FPassing clouds.12 mph59%29.98 "HgN/A
10:00 am88 °FScattered clouds.10 mph59%30.01 "HgN/A
9:00 am86 °FScattered clouds.9 mph66%30.01 "HgN/A
8:00 am82 °FPassing clouds.7 mph70%29.98 "HgN/A
7:00 am79 °FPassing clouds.No wind79%29.95 "HgN/A
6:00 am79 °FPassing clouds.9 mph79%29.92 "HgN/A
12:00 am81 °FPassing clouds.9 mph79%29.92 "HgN/A
11:00 pm
Sat, Dec 3
81 °FPassing clouds.9 mph74%29.95 "HgN/A
10:00 pm81 °FPassing clouds.6 mph79%29.95 "HgN/A
9:00 pm81 °FPassing clouds.6 mph79%29.98 "HgN/A
8:00 pm81 °FPassing clouds.6 mph79%29.95 "HgN/A
7:00 pm82 °FPassing clouds.9 mph74%29.95 "HgN/A
6:00 pm82 °FPassing clouds.8 mph74%29.92 "HgN/A
Weather by CustomWeather, © 2016

See weather overviewHow to use our weather pages